{"data":{"norad_id":55823,"intl_designator":"2023-029AD","name":"ONEWEB-0663","alt_names":[],"object_type":"PAYLOAD","status":"ACTIVE","operator":null,"country":"UK","launch_date":"2023-03-09","launch_site_code":"AFETR","launch_vehicle":null,"mission":null,"orbit_class":"UNKNOWN","rcs_meters":null,"size_class":null,"mass_kg":null,"dimensions":null,"purposes":["comms"],"wikipedia_slug":null,"has_3d_model":false,"image_url":null,"decayed_at":null,"tle_current":{"epoch":"2026-09-19T05:52:58.069920Z","epoch_age_seconds":126667,"freshness":"FRESH","line1":"1 55823U 23029AD  26262.24511655  .00000068  00000+0  13420-3 0  9992","line2":"2 55823  87.9146 255.7365 0002066  75.2004 284.9358 13.20874710173569","mean_motion":13.2087471,"eccentricity":0.0002066,"inclination_deg":87.9146,"raan_deg":255.7365,"arg_perigee_deg":75.2004,"mean_anomaly_deg":284.9358,"bstar":0.0001342,"rev_number":17356,"period_min":109.01866688022,"perigee_km":1179.8189563857,"apogee_km":1182.9425491211,"semimajor_km":7559.5177527534,"source":"CELESTRAK","updated_at":"2026-09-20T09:00:44.764771Z"}}}